Weather History for LKCV - July, 2013

Change the Weather History Date:

Friday, July 19, 2013

  Actual Average Record
Temperature  
Mean Temperature 70 °F -  
Max Temperature 82 °F - - ()
Min Temperature 57 °F - - ()
Cooling Degree Days 4    
Growing Degree Days 20 (Base 50)    
Moisture  
Dew Point 57 °F    
Average Humidity 66    
Maximum Humidity 100    
Minimum Humidity 39    
Precipitation  
Precipitation 0.00 in - - ()
Sea Level Pressure  
Sea Level Pressure 30.11 in    
Wind  
Wind Speed 4 mph ()    
Max Wind Speed 14 mph    
Max Gust Speed -    
Visibility 6.2 miles    
Events      
T = Trace of Precipitation, MM = Missing Value Source: Averaged Metar Reports

Daily Weather History Graph

Daily Weather History Graph

Search for Another Location

Airport or City:

Trip Planner

Search our weather history database for the weather conditions in past years. The results will help you decide how hot, cold, wet, or windy it might be!

Date:

Astronomy

Jul. 19, 2013 Rise Set
Actual Time 5:10 AM CEST 8:57 PM CEST
Civil Twilight 4:29 AM CEST 9:38 PM CEST
Nautical Twilight 3:32 AM CEST 10:35 PM CEST
Astronomical Twilight 2:04 AM CEST 12:01 AM CEST
Moon 5:40 PM CEST (7/19) 1:39 AM CEST (7/19)
Length of Visible Light 17h 09m
Length of Day
15h 46m
Waxing Gibbous, 84% of the Moon is Illuminated
Jul 19
Waxing Gibbous
Jul 22
Full
Jul 29
Last Quarter
Aug 6
New
Aug 14
First Quarter

Hourly Weather History & Observations

Time (CEST) Temp. Heat Index Dew Point Humidity Pressure Visibility Wind Dir Wind Speed Gust Speed Precip Events Conditions
12:00 AM 64.4 °F - 60.8 °F 88% 30.18 in - SW 3.5 mph - N/A   Clear
1:00 AM 60.8 °F - 59.0 °F 94% 30.18 in - SW 5.8 mph - N/A   Clear
2:00 AM 59.0 °F - 57.2 °F 94% 30.15 in - SW 4.6 mph - N/A   Clear
3:00 AM 60.8 °F - 57.2 °F 88% 30.15 in - Calm Calm - N/A   Clear
4:00 AM 60.8 °F - 57.2 °F 88% 30.15 in - Calm Calm - N/A   Clear
5:00 AM 59.0 °F - 57.2 °F 94% 30.15 in - Variable 2.3 mph - N/A   Clear
6:00 AM 57.2 °F - 57.2 °F 100% 30.15 in - Variable 2.3 mph - N/A   Clear
7:00 AM 60.8 °F - 59.0 °F 94% 30.15 in - Calm Calm - N/A   Clear
8:00 AM 64.4 °F - 60.8 °F 88% 30.15 in - Variable 2.3 mph - N/A   Clear
9:00 AM 69.8 °F - 60.8 °F 73% 30.15 in - Variable 2.3 mph - N/A   Clear
10:00 AM 73.4 °F - 60.8 °F 65% 30.15 in 6.2 mi Variable 1.2 mph - N/A   Partly Cloudy
11:00 AM 77.0 °F - 59.0 °F 54% 30.15 in 6.2 mi NW 3.5 mph - N/A   Partly Cloudy
12:00 PM 78.8 °F - 55.4 °F 44% 30.12 in 6.2 mi WNW 5.8 mph - N/A   Scattered Clouds
1:00 PM 80.6 °F 80.5 °F 55.4 °F 42% 30.12 in - West 6.9 mph - N/A   Clear
2:00 PM 80.6 °F 80.5 °F 55.4 °F 42% 30.09 in - West 10.4 mph - N/A   Clear
3:00 PM 82.4 °F 82.0 °F 57.2 °F 42% 30.09 in - NNW 10.4 mph - N/A   Clear
4:00 PM 80.6 °F 80.5 °F 55.4 °F 42% 30.06 in - WNW 12.7 mph - N/A   Clear
5:00 PM 80.6 °F 80.3 °F 53.6 °F 39% 30.06 in - NW 13.8 mph - N/A   Clear
6:00 PM 80.6 °F 80.3 °F 53.6 °F 39% 30.06 in - NW 10.4 mph - N/A   Clear
7:00 PM 78.8 °F - 53.6 °F 42% 30.04 in - NW 9.2 mph - N/A   Clear
8:00 PM 78.8 °F - 55.4 °F 44% 30.04 in - NW 9.2 mph - N/A   Clear
9:00 PM 75.2 °F - 57.2 °F 53% 30.04 in - NNW 5.8 mph - N/A   Clear
10:00 PM 71.6 °F - 59.0 °F 64% 30.06 in - NW 5.8 mph - N/A   Clear
11:00 PM 66.2 °F - 60.8 °F 83% 30.06 in - West 4.6 mph - N/A   Clear